Location: Utrecht
(52.0830°N, 5.1330°E)
Time: 13:17:18
(UTC+02:00)

Daily predictions for brighter satellites

Satellite Brightness Start Highest point End
(mag) Time Altitude Azimuth Time Altitude Azimuth Time Altitude Azimuth
Cosmos 2263 Rocket 3.9 20:27:10 10° WSW 20:32:18 35° NW 20:37:26 10° NNE
Cosmos 158 Rocket 4.3 20:31:38 10° NNW 20:36:32 48° ENE 20:41:34 10° SE
Cosmos 1437 Rocket 2.9 20:33:29 10° S 20:37:32 88° E 20:41:40 10° NNE
FengYun 1-2 T 4.4 20:33:49 10° SSE 20:39:25 86° WSW 20:45:07 10° NNW
Meteor 1-24 Rocket 4.1 20:39:05 10° NNW 20:44:30 68° W 20:50:05 10° S
Meteor 1-4 Rocket 3.5 20:41:56 10° SSE 20:44:50 25° E 20:47:44 10° NE
Cosmos 1470 4.4 20:42:51 10° SE 20:45:24 17° E 20:47:57 10° NE
Cosmos 1340 Rocket 3.9 20:42:09 10° N 20:45:36 26° ENE 20:49:01 10° SE
USA 267 3.6 20:39:41 10° E 20:46:07 62° N 20:52:33 10° WNW
Cosmos 2082 Rocket 2.3 20:40:34 10° NNW 20:46:18 70° ENE 20:51:57 10° SE
SJ-6B 4.0 20:43:49 10° S 20:47:25 45° W 20:51:03 10° NNW
Okean 3 Rocket 3.5 20:43:20 10° N 20:47:45 78° ENE 20:52:09 10° SSE
Spot 2 Rocket 3.6 20:45:15 10° SSE 20:50:22 90° NE 20:55:32 10° NNW
Cosmos 1821 Rocket 4.2 20:45:10 10° S 20:51:34 84° W 20:57:56 10° N
Cosmos 1544 3.5 20:49:12 10° SSE 20:52:39 41° E 20:56:09 10° NNE
Cosmos 990 Rocket 4.0 20:54:58 10° SSW 21:00:13 88° ESE 21:05:30 10° NNE
Cosmos 2084 Rocket 4.4 20:56:51 10° WSW 21:00:39 44° NW 21:04:22 10° NE
Lacrosse 5 2.1 20:57:17 10° SSW 21:02:09 48° SE 21:07:02 10° ENE
Cosmos 1076 Rocket 3.4 20:59:09 10° N 21:03:26 75° ENE 21:07:40 10° SSE
Cosmos 2150 Rocket 4.3 20:58:24 10° SSW 21:03:33 71° WNW 21:08:44 10° NNE
H-2A R/B 3.4 21:00:38 10° S 21:04:31 60° W 21:08:26 10° NNW
Helios 1B rocket 3.1 21:00:47 10° NNE 21:04:35 34° E 21:08:21 10° SSE
CZ-4B DEB 3.0 21:02:04 10° SE 21:05:03 45° ENE 21:08:03 10° N
Cosmos 1812 Rocket 4.2 21:02:39 10° SSW 21:07:02 61° WNW 21:11:23 10° N
Envisat 3.2 21:03:29 10° SE 21:08:26 55° ENE 21:13:25 10° N
Cosmos 1898 Rocket 4.4 21:03:14 10° SW 21:08:26 55° WNW 21:13:37 10° NNE
Cosmos 1605 Rocket 4.0 21:03:19 10° S 21:09:36 79° E 21:16:01 10° NNE
Cosmos 482 Debris 3.6 21:09:13 10° W 21:10:58 31° SSW 21:11:42 21° SSE
SPOT 5 4.3 21:08:05 14° ESE 21:11:27 25° ENE 21:15:40 10° N
Cosmos 2100 Rocket 4.5 21:05:43 10° SSE 21:11:32 40° E 21:17:26 10° NNE
Cosmos 1758 3.3 21:08:19 10° S 21:12:14 59° E 21:16:12 10° NNE
H-2A R/B 3.8 21:10:20 12° E 21:13:04 16° NE 21:16:15 10° NNE
SL-14 R/B 4.4 21:11:08 10° NNE 21:14:22 25° ENE 21:16:06 18° ESE
Cosmos 1048 Rocket 4.1 21:09:34 10° NNW 21:14:44 81° WSW 21:19:51 10° SSE
Cosmos 1844 4.1 21:08:59 10° SW 21:14:46 70° NW 21:20:36 10° NNE
Geosat 4.3 21:11:45 10° NE 21:16:35 45° ESE 21:21:23 10° S
Cosmos 1125 Rocket 3.7 21:11:53 10° S 21:16:51 48° ESE 21:21:53 10° NE
Cosmos 1766 Rocket 3.5 21:13:12 10° N 21:17:42 77° ENE 21:22:12 10° SSE
GP-B 3.1 21:14:14 10° SSE 21:18:36 61° E 21:23:00 10° N
Lacrosse 4 Rocket 2.5 21:14:45 10° WSW 21:18:40 46° NW 21:22:37 10° NNE
Cosmos 1953 2.3 21:16:22 10° S 21:20:23 67° E 21:24:27 10° NNE
Helios 1A 3.1 21:18:49 10° SSE 21:22:59 79° WSW 21:27:13 10° NNW
Resurs 01 Rocket 2.9 21:20:03 10° S 21:24:15 42° W 21:28:29 10° NNW
Cosmos 1939 Rocket 3.0 21:21:54 12° SSE 21:25:43 62° ENE 21:29:50 10° N
ERS-1 Rocket 3.3 21:23:22 16° SE 21:27:14 47° ENE 21:32:04 10° N
Terra 3.9 21:29:15 11° ENE 21:30:44 12° NE 21:32:41 10° NNE
Cosmos 1271 Rocket 3.1 21:27:30 10° SSE 21:31:18 42° E 21:35:09 10° NNE
Cosmos 1802 Rocket 4.3 21:26:36 10° SSE 21:32:22 44° E 21:38:12 10° NNE
Cosmos-2242 3.0 21:30:52 10° S 21:35:00 54° E 21:39:11 10° NNE
USA 186 2.9 21:34:13 10° SSW 21:36:13 28° W 21:38:13 10° NW
SJ-11-01 4.2 21:31:46 10° SSE 21:36:32 85° ENE 21:41:16 10° NNW
Lacrosse 5 rocket 1.7 21:33:33 10° WNW 21:37:27 52° SW 21:39:32 23° SSE
Cosmos 1184 Rocket 3.0 21:37:12 10° N 21:40:34 53° ENE 21:41:45 33° SE
Cosmos 1674 3.2 21:38:56 10° NNW 21:42:41 60° W 21:46:25 10° S
Timation 2 Rocket 4.4 21:38:08 10° NW 21:44:27 62° WSW 21:50:21 11° SSE
Cosmos 2061 Rocket 4.1 21:39:10 10° S 21:45:26 60° E 21:51:46 10° NNE
Cosmos 2251 Rocket 3.5 21:43:41 10° NNW 21:49:00 70° ENE 21:52:08 25° SE
Cosmos 1743 Rocket 3.5 21:44:48 10° N 21:49:16 78° E 21:52:17 20° SSE
Cosmos 1844 Rocket 4.3 21:44:13 10° WSW 21:49:25 36° NW 21:54:37 10° NNE
Cosmos 1500 Rocket 3.5 21:46:48 10° N 21:51:06 61° ENE 21:53:09 29° SSE
Cosmos 2221 4.3 21:53:55 17° ENE 21:53:55 17° ENE 21:55:48 10° NE
USA 215 3.7 21:46:59 10° ENE 21:52:53 35° SE 21:58:45 10° SSW
YAOGAN 6 2.6 21:53:04 34° SSE 21:54:33 70° ENE 21:58:18 10° N
Timation 1 Rocket 4.3 21:48:45 10° SSW 21:54:47 85° ESE 22:00:51 10° NNE
Cosmos 1833 Rocket 3.6 21:49:30 10° NW 21:54:53 47° WSW 22:00:13 10° S
H-2A R/B 3.5 21:55:08 19° ENE 21:55:24 20° ENE 21:58:23 10° NNE
SPOT 1/Viking Rocket 4.3 21:54:32 28° ESE 21:56:20 36° ENE 22:01:05 10° N
Cosmos 1356 Rocket 3.3 21:53:34 10° N 21:57:44 69° ENE 21:59:19 35° SSE
Meteor 1-29 3.1 21:57:59 10° N 22:01:28 74° WNW 22:04:56 10° SSW
MetOp-B 4.2 21:59:32 29° SE 22:02:14 62° ENE 22:07:32 10° N
SS 1 4.5 22:00:08 10° NW 22:03:01 65° NE 22:03:04 65° NE
Cosmos 1459 Rocket 3.9 21:57:26 10° S 22:03:41 83° E 22:09:52 10° NNE
NOAA 11 4.2 22:01:50 29° SE 22:04:36 63° ENE 22:10:03 10° N
Cosmos 2278 Rocket 3.0 22:00:17 10° SW 22:05:50 53° NW 22:11:25 10° NNE
Cosmos 2173 Rocket 3.9 22:02:59 10° S 22:09:11 87° E 22:15:31 10° N
Cosmos 372 Rocket 4.0 22:10:21 10° SSW 22:15:29 80° WNW 22:20:42 10° NNE
Cosmos 1626 3.0 22:12:27 10° N 22:15:31 36° NE 22:15:31 36° NE
ATLAS 5 CENTAUR R/B 1.8 22:13:02 10° SSW 22:17:43 56° SE 22:22:53 10° NE
Cosmos 1470 3.5 22:17:12 10° SSW 22:21:07 54° WNW 22:25:02 10° N
Cosmos 2297 3.9 22:15:36 10° SW 22:21:20 75° WNW 22:27:07 10° NNE
Cosmos 1340 Rocket 4.3 22:18:28 10° NNW 22:22:11 35° W 22:25:08 14° SSW
Meteor 1-11 4.2 22:21:12 10° NNW 22:26:49 81° W 22:29:38 31° S
Cosmos 2344 4.2 22:19:26 10° WSW 22:27:15 66° NNW 22:36:56 10° NE
Cosmos 1867 3.5 22:22:06 10° SW 22:27:35 87° NW 22:33:06 10° NE
Cosmos 2058 2.8 22:24:09 10° N 22:28:22 85° ENE 22:28:53 67° SSE
Cosmos 1842 Rocket 3.4 22:27:03 39° S 22:28:39 86° ESE 22:33:05 10° NNE
USA 267 3.2 22:26:09 37° ESE 22:29:02 84° SSW 22:35:37 10° WNW
Cosmos 2082 Rocket 4.1 22:25:21 10° NW 22:29:54 25° WSW 22:34:25 10° SSW
Cosmos 1733 4.3 22:27:31 10° SSW 22:31:14 44° WNW 22:35:00 10° N
Cosmos 2151 3.1 22:28:06 10° NNW 22:32:22 72° W 22:33:23 50° SSW
USA 245 4.3 22:31:55 40° SSE 22:34:09 84° ENE 22:40:33 10° NNW
Cosmos 494 Rocket 4.5 22:30:01 10° NNW 22:35:01 54° WSW 22:37:10 32° S
Meteor 2-17 Rocket 4.4 22:29:18 10° S 22:35:29 85° W 22:41:41 10° N
BREEZE-M DEB (TANK) 4.4 22:34:20 10° WSW 22:35:11 18° WSW 22:35:11 18° WSW
TIMED 4.3 22:36:22 64° S 22:37:00 81° ESE 22:41:24 10° NNE
CZ-3B DEB 1.9 22:30:09 10° WSW 22:37:42 74° NNW 22:38:51 48° NE
Cosmos 389 Rocket 3.8 22:40:26 32° NNE 22:40:26 32° NNE 22:42:28 10° NNE
Helios 1B rocket 4.4 22:36:13 10° N 22:39:52 30° WNW 22:43:29 10° SW
Cosmos 2016 Rocket 4.1 22:34:43 10° SSW 22:40:55 77° W 22:47:07 10° N
Meteor 1-16 Rocket 4.3 22:38:44 16° SSW 22:43:29 85° W 22:49:29 10° NNE
Lacrosse 5 2.2 22:40:03 10° WSW 22:45:06 64° NNW 22:47:42 28° NE
ARGOS 3.1 22:47:01 48° S 22:48:33 79° WSW 22:53:57 10° NNW
Cosmos 1725 Rocket 3.9 22:45:20 28° S 22:48:53 89° E 22:55:08 10° N
SPOT 5 3.2 22:47:19 43° S 22:49:04 71° WSW 22:54:24 10° NNW
H-2A R/B 2.0 22:50:58 64° SE 22:51:41 74° ENE 22:56:59 10° NNW
Landsat 7 3.8 22:52:23 63° ENE 22:52:23 63° ENE 22:57:03 10° N
Meteor 2-1 Rocket 4.1 22:51:49 56° SSE 22:52:57 74° E 22:58:37 10° NNE
Lacrosse 4 Rocket 4.4 22:56:16 10° NW 22:58:24 14° NNW 23:00:32 10° N
CARTOSAT-1 4.3 23:00:41 43° NNE 23:00:41 43° NNE 23:04:02 10° N
Tsikada Rocket 4.4 22:53:47 10° NNW 22:59:53 60° W 23:02:51 31° SSW
Sich 1 3.5 23:00:33 10° N 23:04:10 57° NNE 23:04:10 57° NNE
Cosmos 1666 Rocket 4.0 23:00:47 10° N 23:04:16 55° N 23:04:16 55° N
Terra 2.1 23:08:08 58° NE 23:08:08 58° NE 23:12:19 10° N
Cosmos 1633 Rocket 3.6 23:04:48 10° N 23:08:17 52° NNE 23:08:17 52° NNE
Cosmos 2297 Rocket 4.1 23:07:15 10° NNW 23:11:10 19° NNE 23:13:06 16° NE
Cosmos 1833 4.1 23:16:04 10° NNW 23:21:41 84° NE 23:21:41 84° NE
Nimbus 7 Rocket 4.4 23:21:18 10° NNE 23:27:12 80° WNW 23:28:16 61° SW
Cosmos 2369 Rocket 2.8 23:29:46 43° NE 23:29:46 43° NE 23:33:34 10° NE
Meteor 2-12 Rocket 4.5 23:29:02 64° ENE 23:29:02 64° ENE 23:34:31 10° NNE
Cosmos 2221 3.4 23:30:44 47° NNW 23:30:44 47° NNW 23:34:15 10° N
H-2A R/B 3.1 23:32:15 41° NW 23:32:15 41° NW 23:35:09 10° NNW
SPOT 1/Viking Rocket 4.4 23:35:10 41° WSW 23:35:41 42° W 23:40:40 10° NNW
USA 215 3.1 23:29:52 10° ENE 23:36:28 85° SSE 23:43:01 10° WSW
Cosmos 2227 Rocket 3.6 23:32:48 10° NNW 23:37:36 27° NE 23:38:11 26° NE
Cosmos 1072 Rocket 4.5 23:49:59 79° NE 23:49:59 79° NE 23:56:07 10° NNE
Cosmos 407 Rocket 4.0 23:45:49 10° NNW 23:50:06 58° NNW 23:50:06 58° NNW
